• Join FlightAware (Why Join?)
  • Login
  • US Flag 
02:50AM EST


 

Airport Tracker/Info


-or-


 

Live Flight TrackerFlight Track Log ✈ SWA1031 ✈ 02-May-2013 ✈ KSMF - KONT

Flight Track Log - Related Links

Times and Time Zones

All times are in EDT time to prevent confusion due to time zone crossing. See the SWA1031 flight status page for this flight to view local times or setup timezone preferences in your user account.

Time Position Orientation Groundspeed Altitude Reporting Facility
EDT Latitude Longitude Course Direction KTS MPH feet Rate Location/Type
03:07PM 38.7333 -121.6000 134° Southeast 164 189 1,800  Level Northern Cal TRACON
03:08PM 38.7167 -121.5500 113° Southeast 230 265 4,300 2,526 Climbing Northern Cal TRACON
03:09PM 38.6667 -121.4833 134° Southeast 267 307 6,600 2,407 Climbing Northern Cal TRACON
03:11PM 38.5833 -121.3344 126° Southeast 297 342 11,200 2,581 Climbing Oakland Center
03:12PM 38.2781 -121.2066 134° Southeast  Level Estimated
03:12PM 38.5278 -121.2317 125° Southeast 343 395 14,300  Level Oakland Center
03:13PM 38.4592 -121.1058 125° Southeast 357 411 18,000 3,171 Climbing Oakland Center
03:14PM 38.3983 -120.9917 124° Southeast 386 444 20,800 1,463 Climbing Oakland Center
03:15PM 38.3361 -120.8756 124° Southeast 395 455 21,000 780 Climbing Oakland Center
03:16PM 38.2739 -120.7600 124° Southeast 396 456 22,400 1,854 Climbing Oakland Center
03:17PM 38.2031 -120.6522 130° Southeast 400 460 24,800 2,195 Climbing Oakland Center
03:18PM 38.1086 -120.5606 143° Southeast 425 489 26,900 1,672 Climbing Oakland Center
03:19PM 38.0119 -120.4661 142° Southeast 436 502 28,200 1,024 Climbing Oakland Center
03:20PM 37.9108 -120.3678 142° Southeast 455 524 29,000 390 Climbing Oakland Center
03:21PM 37.8128 -120.2681 141° Southeast 454 522 29,000  Level Oakland Center
03:22PM 37.6914 -120.1525 143° Southeast 454 522 29,000 537 Level Oakland Center
03:23PM 37.5781 -120.0769 152° Southeast 469 540 30,100 1,268 Climbing Oakland Center
03:24PM 37.4625 -120.0044 154° Southeast 464 534 31,600 1,707 Climbing Oakland Center
03:25PM 37.3428 -119.9358 156° South 468 539 33,600 1,756 Climbing Oakland Center
03:26PM 37.2247 -119.8656 155° Southeast 470 541 35,200 1,512 Climbing Oakland Center
03:27PM 37.1075 -119.7967 155° Southeast 468 539 36,700 1,561 Climbing Oakland Center
03:28PM 36.9900 -119.7278 155° Southeast 466 536 38,400 1,122 Climbing Oakland Center
03:29PM 36.8739 -119.6592 155° Southeast 462 532 39,000 293 Climbing Oakland Center
03:30PM 36.7567 -119.5914 155° Southeast 464 534 39,000  Level Oakland Center
03:31PM 36.6178 -119.5119 155° Southeast 457 526 39,000  Level Oakland Center
03:32PM 36.5039 -119.4467 155° Southeast 453 521 39,000  Level Oakland Center
03:33PM 36.3883 -119.3808 155° Southeast 454 522 39,000  Level Oakland Center
03:34PM 36.2739 -119.3164 156° South 452 520 39,000  Level Oakland Center
03:35PM 36.1597 -119.2514 155° Southeast 451 519 39,000  Level Oakland Center
03:36PM 36.0444 -119.1861 155° Southeast 452 520 39,000  Level Oakland Center
03:37PM 35.9317 -119.1261 157° South 440 506 39,000  Level Oakland Center
03:38PM 35.8169 -119.0622 156° South 444 511 39,000 -390 Level Oakland Center
03:39PM 35.7017 -118.9981 156° South 451 519 38,200 -976 Descending Oakland Center
03:40PM 35.5628 -118.9200 155° Southeast 454 522 37,000 -585 Descending Oakland Center
03:41PM 35.4458 -118.8553 156° South 454 522 37,000 -435 Level Los Angeles Center
03:42PM 35.3306 -118.7908 155° Southeast 454 522 36,100 -919 Descending Los Angeles Center
03:43PM 35.2136 -118.7264 156° South 458 527 35,100 -1,452 Descending Los Angeles Center
03:44PM 35.0953 -118.6625 156° South 463 533 33,100 -1,887 Descending Los Angeles Center
03:46PM 34.9867 -118.5786 148° Southeast 469 540 31,200 -2,226 Descending Los Angeles Center
03:47PM 34.8981 -118.4497 130° Southeast 470 541 28,500 -2,468 Descending Los Angeles Center
03:48PM 34.8178 -118.3358 131° Southeast 451 519 26,100 -2,177 Descending Los Angeles Center
03:49PM 34.7411 -118.2231 130° Southeast 438 504 24,000 -1,210 Descending Los Angeles Center
03:50PM 34.6508 -118.0944 130° Southeast 422 486 23,600 -1,258 Descending Los Angeles Center
03:51PM 34.5911 -117.9789 122° Southeast 410 472 21,400 -2,129 Descending Los Angeles Center
03:52PM 34.5378 -117.8628 119° Southeast 399 459 19,200 -1,887 Descending Los Angeles Center
03:53PM 34.4867 -117.7494 119° Southeast 388 447 17,500 -1,887 Descending Los Angeles Center
03:54PM 34.4358 -117.6400 119° Southeast 377 434 15,300 -1,694 Descending Los Angeles Center
03:55PM 34.3825 -117.5167 118° Southeast 345 397 14,000 -1,065 Descending Los Angeles Center
03:56PM 34.3442 -117.4353 120° Southeast 316 364 13,100 -1,306 Descending Los Angeles Center
03:57PM 34.2853 -117.3381 126° Southeast 307 353 11,300 -1,548 Descending Los Angeles Center
03:58PM 34.2042 -117.3128 166° South 300 345 9,900 -1,349 Descending Los Angeles Center
03:59PM 34.1167 -117.3167 182° South 303 349 8,400 -1,323 Descending Southern California TRACON
04:00PM 34.1000 -117.4167 259° West 286 329 7,100 -1,300 Descending Southern California TRACON
04:01PM 34.1000 -117.5167 270° West 283 326 5,800 -1,150 Descending Southern California TRACON
04:02PM 34.1000 -117.6000 270° West 276 318 4,800 -950 Descending Southern California TRACON
04:03PM 34.1000 -117.6833 270° West 233 268 3,900 -893 Descending Southern California TRACON
04:04PM 34.1000 -117.7500 270° West 202 232 3,000 -446 Descending Southern California TRACON
04:05PM 34.0667 -117.7333 158° South 177 204 3,000 -400 Level Southern California TRACON
04:06PM 34.0500 -117.7000 121° Southeast 138 159 2,200 -750 Descending Southern California TRACON
04:07PM 34.0500 -117.6500 90° East 130 150 1,500 -700 Descending Southern California TRACON
04:10PM 34.0560 -117.6012 97° East  Level Estimated